[[{"header":{"parameterUnit":"m.s-1","parameterCategory":1,"la1":30.2991,"la2":30.254,"lo1":-89.0895,"lo2":-89.0444,"dy":0.0017,"dx":0.0017,"nx":28,"ny":28,"refTime":"2024-05-19T03:00:00:Z","depth":0,"parameterNumber":2,"parameterNumberName":"U-component_of_WINDS"},"data":[0,0,0,0,0,0,0,0,0,0,0,0,0,0,0,0,0,0,0,0,0,0,0,0,0,0,0,0,0,0,0,0,0,0,0,0,0,0,0,0,0,0,0,0,0,0,0,0,0,0,0,0,0,0,0,0,0,0,-0.0919,-0.0919,0,-0.0854,-0.0853,-0.0852,-0.08,-0.0799,-0.0798,-0.0798,-0.0731,-0.073,-0.0728,0,0,0,0,0,0,0,0,0,0,0,0,0,-0.1,-0.0999,-0.0919,-0.0919,-0.0918,-0.0854,-0.0853,-0.0852,-0.08,-0.0799,-0.0798,-0.0798,-0.0731,-0.073,-0.0728,0,0,0,0,0,0,0,0,0,0,0,0,0,-0.0953,-0.0999,-0.0919,-0.0884,-0.088,-0.0854,-0.0853,-0.0852,-0.08,-0.0799,-0.0798,-0.0797,-0.0732,-0.073,-0.0728,-0.0732,0,0,-0.0722,-0.0721,0,0,0,0,0,0,0,0,-0.0956,-0.095,-0.089,-0.0886,-0.0882,-0.0834,-0.0857,-0.0812,-0.08,-0.083,-0.0798,-0.0797,-0.0766,-0.0761,-0.075,-0.0729,-0.0726,-0.0722,-0.0721,-0.072,-0.0719,0,0,0,0,0,0,0,-0.0959,-0.0953,-0.0893,-0.0889,-0.0884,-0.0871,-0.0864,-0.0848,-0.0803,-0.0828,-0.0824,-0.0817,-0.0763,-0.0752,-0.0748,-0.0725,-0.0722,-0.072,-0.0719,-0.0718,-0.0704,-0.0705,0,0,0,0,0,0,-0.0968,-0.0956,-0.0895,-0.0891,-0.0918,-0.0871,-0.0862,-0.085,-0.0803,-0.0795,-0.0817,-0.0814,-0.0756,-0.0751,-0.0746,-0.0748,-0.072,-0.0718,-0.0717,-0.0703,-0.0704,-0.0705,0,0,0,0,0,0,-0.097,-0.0963,-0.0898,-0.0922,-0.0913,-0.087,-0.0857,-0.0849,-0.0838,-0.0796,-0.0787,-0.0814,-0.0755,-0.0749,-0.0736,-0.0745,-0.0717,-0.0715,-0.0702,-0.0704,-0.0705,-0.0751,0,0,0,0,0,0,-0.0972,-0.0964,-0.0965,-0.0923,-0.0912,-0.0889,-0.0858,-0.0849,-0.0835,-0.083,-0.079,-0.0783,-0.0754,-0.0739,-0.0734,-0.0741,-0.0714,-0.0701,-0.0703,-0.0704,-0.0749,-0.0754,-0.0758,0,0,0,0,0,-0.0975,-0.098,-0.0965,-0.0958,-0.0912,-0.089,-0.0883,-0.085,-0.0836,-0.0836,-0.0809,-0.0784,-0.0745,-0.0738,-0.0732,-0.0739,-0.0701,-0.0702,-0.0704,-0.0747,-0.0753,-0.0758,0,0,0,0,0,0,-0.1024,-0.0974,-0.0957,-0.0948,-0.0924,-0.0881,-0.088,-0.0858,-0.0837,-0.0833,-0.0793,-0.0784,-0.0776,-0.0756,-0.075,-0.0741,-0.0719,-0.072,-0.0754,-0.076,-0.0764,-0.0769,-0.0712,0,0,0,0,0,-0.1034,-0.102,-0.0977,-0.0974,-0.0962,-0.0924,-0.0913,-0.0889,-0.0862,-0.0851,-0.0823,-0.0798,-0.078,-0.0769,-0.075,-0.0746,-0.0737,-0.0748,-0.0753,-0.0757,-0.0758,-0.0755,-0.076,-0.0711,-0.0711,-0.0711,0,0,-0.1054,-0.1025,-0.1018,-0.0983,-0.0961,-0.0947,-0.0915,-0.0902,-0.0892,-0.0849,-0.0836,-0.0814,-0.0784,-0.0776,-0.0771,-0.0759,-0.0769,-0.0759,-0.0763,-0.0761,-0.0757,-0.0762,-0.0766,-0.0712,-0.0712,-0.0712,0,0,-0.1084,-0.106,-0.1055,-0.1034,-0.1001,-0.0976,-0.0975,-0.0936,-0.092,-0.0906,-0.0874,-0.0861,-0.0831,-0.081,-0.0796,-0.082,-0.0796,-0.0815,-0.0839,-0.0837,-0.0841,-0.0844,-0.0853,-0.0856,-0.0816,-0.0816,-0.0816,0,-0.1113,-0.109,-0.1055,-0.1044,-0.103,-0.0991,-0.0986,-0.0967,-0.093,-0.0922,-0.0909,-0.087,-0.0847,-0.0834,-0.084,-0.083,-0.0828,-0.0818,-0.0843,-0.0846,-0.0849,-0.0856,-0.086,-0.0818,-0.0818,-0.0818,-0.0818,0,-0.1128,-0.1113,-0.1113,-0.1079,-0.1064,-0.1056,-0.102,-0.101,-0.0988,-0.0964,-0.0951,-0.0922,-0.0896,-0.0892,-0.087,-0.0876,-0.087,-0.0851,-0.0828,-0.0856,-0.0863,-0.0866,-0.0822,-0.0821,-0.082,-0.082,0,0,-0.1185,-0.1132,-0.1133,-0.1117,-0.1079,-0.1067,-0.1058,-0.1033,-0.1025,-0.1001,-0.0993,-0.0969,-0.0951,-0.0935,-0.0911,-0.0909,-0.093,-0.0891,-0.0889,-0.0899,-0.0935,-0.095,-0.0954,-0.0915,-0.0915,-0.0915,-0.0938,0,-0.1209,-0.1189,-0.1158,-0.1149,-0.1135,-0.1099,-0.1091,-0.1067,-0.1045,-0.103,-0.1006,-0.0989,-0.0968,-0.0958,-0.0954,-0.0928,-0.0937,-0.0926,-0.0906,-0.0906,-0.0915,-0.0957,-0.0972,-0.0994,-0.094,-0.0941,-0.0941,0,-0.1233,-0.1212,-0.1201,-0.1165,-0.1158,-0.1151,-0.1126,-0.1113,-0.1085,-0.1069,-0.1052,-0.1026,-0.1015,-0.0996,-0.098,-0.0973,-0.0964,-0.095,-0.095,-0.0946,-0.0925,-0.0954,-0.1,-0.1004,-0.0945,-0.0944,-0.0944,0,-0.1276,-0.1245,-0.1234,-0.1222,-0.1179,-0.1175,-0.1157,-0.1129,-0.1117,-0.1095,-0.1087,-0.1065,-0.1053,-0.1036,-0.1006,-0.0994,-0.0994,-0.0971,-0.098,-0.0981,-0.0981,-0.0982,-0.1026,-0.0976,-0.0976,-0.0976,-0.0976,0,-0.1305,-0.1301,-0.1253,-0.1247,-0.1241,-0.1205,-0.12,-0.1179,-0.1154,-0.1144,-0.1111,-0.1102,-0.1062,-0.1049,-0.1025,-0.1016,-0.101,-0.0997,-0.0991,-0.1,-0.1002,-0.0993,-0.099,-0.0976,-0.0976,-0.0976,-0.0976,0,-0.1352,-0.132,-0.1307,-0.1268,-0.1258,-0.1255,-0.1222,-0.1214,-0.1191,-0.1178,-0.1173,-0.1136,-0.1118,-0.1086,-0.1059,-0.1043,-0.104,-0.1029,-0.1049,-0.1045,-0.1056,-0.1055,-0.1096,-0.11,-0.1047,-0.1048,-0.1048,0,-0.1373,-0.1368,-0.1329,-0.1319,-0.1302,-0.1287,-0.1275,-0.124,-0.1228,-0.1197,-0.1194,-0.1174,-0.1156,-0.113,-0.1101,-0.108,-0.1068,-0.1084,-0.1065,-0.1075,-0.1069,-0.1069,-0.1069,-0.1088,-0.1089,-0.109,-0.109,0,-0.1413,-0.1397,-0.138,-0.1357,-0.1343,-0.1323,-0.1302,-0.1297,-0.1257,-0.1245,-0.1227,-0.1213,-0.1186,-0.1167,-0.1143,-0.1125,-0.1101,-0.1097,-0.1098,-0.1107,-0.1119,-0.1113,-0.106,-0.1096,-0.1095,-0.1095,-0.1094,-0.1094,-0.1447,-0.1441,-0.1413,-0.1395,-0.1375,-0.1356,-0.1348,-0.1323,-0.1307,-0.1283,-0.1263,-0.1247,-0.122,-0.1185,-0.1169,-0.1156,-0.1145,-0.1146,-0.1146,-0.1147,-0.1151,-0.1121,-0.1151,-0.1151,-0.1151,-0.1151,-0.1151,0,-0.1485,-0.1465,-0.1449,-0.1421,-0.1407,-0.1386,-0.1361,-0.1351,-0.1337,-0.1314,-0.1297,-0.1277,-0.1258,-0.1228,-0.1207,-0.1203,-0.1192,-0.1199,-0.1198,-0.1195,-0.1162,-0.1163,-0.1208,-0.1208,-0.1208,-0.1208,-0.1208,-0.1208,-0.1504,-0.1493,-0.1475,-0.1455,-0.1435,-0.1418,-0.1406,-0.1389,-0.137,-0.1349,-0.1333,-0.1314,-0.1288,-0.1266,-0.1248,-0.124,-0.1234,-0.1244,-0.1232,-0.1202,-0.1197,-0.1192,-0.1193,-0.1243,-0.1243,-0.1266,-0.1266,-0.1266]},{"header":{"parameterUnit":"m.s-1","parameterCategory":1,"la1":30.2991,"la2":30.254,"lo1":-89.0895,"lo2":-89.0444,"dy":0.0017,"dx":0.0017,"nx":28,"ny":28,"refTime":"2024-05-19T03:00:00:Z","depth":0,"parameterNumber":3,"parameterNumberName":"V-component_of_WINDS"},"data":[0,0,0,0,0,0,0,0,0,0,0,0,0,0,0,0,0,0,0,0,0,0,0,0,0,0,0,0,0,0,0,0,0,0,0,0,0,0,0,0,0,0,0,0,0,0,0,0,0,0,0,0,0,0,0,0,0,0,2.7506,2.7506,0,2.7519,2.7519,2.7519,2.7588,2.7589,2.7591,2.7593,2.7601,2.7599,2.7598,0,0,0,0,0,0,0,0,0,0,0,0,0,2.7536,2.7535,2.7506,2.7506,2.7506,2.7519,2.7519,2.7519,2.7587,2.7589,2.7591,2.7593,2.7601,2.7599,2.7598,0,0,0,0,0,0,0,0,0,0,0,0,0,2.7533,2.7535,2.7506,2.7542,2.7545,2.7519,2.7519,2.7519,2.7587,2.759,2.7592,2.7594,2.7602,2.76,2.7598,2.7536,0,0,2.7592,2.7591,0,0,0,0,0,0,0,0,2.7533,2.7532,2.7536,2.7539,2.7543,2.7554,2.7533,2.7524,2.7586,2.7571,2.7593,2.7596,2.7583,2.7583,2.7579,2.7536,2.7536,2.7591,2.759,2.7589,2.7589,0,0,0,0,0,0,0,2.7533,2.7532,2.7511,2.7536,2.754,2.7556,2.7558,2.7531,2.7563,2.7572,2.7578,2.7578,2.7585,2.7581,2.758,2.7537,2.7591,2.759,2.7588,2.7588,2.7443,2.7441,0,0,0,0,0,0,2.7529,2.7531,2.751,2.7511,2.7544,2.7553,2.7556,2.7548,2.7563,2.7568,2.7576,2.7582,2.7583,2.7582,2.7581,2.7509,2.7589,2.7587,2.7586,2.7446,2.7443,2.744,0,0,0,0,0,0,2.7529,2.7526,2.751,2.7523,2.7522,2.755,2.7541,2.7547,2.7543,2.7566,2.7572,2.7567,2.7585,2.7583,2.7547,2.751,2.7587,2.7585,2.7449,2.7445,2.7441,2.7365,0,0,0,0,0,0,2.753,2.7526,2.7504,2.7522,2.7521,2.7476,2.7538,2.7545,2.754,2.7547,2.7559,2.7563,2.7587,2.7549,2.7545,2.7509,2.7583,2.7452,2.7447,2.7442,2.737,2.7358,2.7348,0,0,0,0,0,2.7531,2.748,2.7502,2.7499,2.7494,2.7474,2.7474,2.7504,2.7537,2.7514,2.7529,2.7562,2.7515,2.7545,2.754,2.7503,2.7455,2.7448,2.7443,2.7375,2.7361,2.7348,0,0,0,0,0,0,2.7455,2.7483,2.7508,2.7462,2.7466,2.7486,2.7458,2.7488,2.748,2.7487,2.7524,2.7526,2.7483,2.749,2.7523,2.7444,2.7491,2.7483,2.7441,2.7427,2.7416,2.7415,2.7582,0,0,0,0,0,2.7434,2.7417,2.7442,2.7399,2.74,2.7429,2.7421,2.7445,2.7449,2.745,2.7463,2.7464,2.745,2.7439,2.7427,2.7372,2.7375,2.7345,2.7333,2.7324,2.7317,2.7288,2.7275,2.742,2.742,2.742,0,0,2.7388,2.7401,2.7388,2.7385,2.739,2.7371,2.7429,2.7406,2.7392,2.7446,2.7413,2.7422,2.7426,2.738,2.736,2.7384,2.7278,2.7317,2.7309,2.7307,2.7281,2.7267,2.7255,2.7416,2.7417,2.7417,0,0,2.7295,2.7304,2.7269,2.7274,2.7283,2.7302,2.7294,2.731,2.7319,2.7286,2.7327,2.731,2.7284,2.7286,2.7283,2.7192,2.7222,2.7187,2.7128,2.71,2.7088,2.7078,2.7045,2.7032,2.718,2.718,2.718,0,2.7236,2.7211,2.7247,2.7222,2.7219,2.727,2.7234,2.7237,2.7239,2.7235,2.7263,2.7233,2.7239,2.7194,2.7172,2.7168,2.7159,2.7185,2.7087,2.7077,2.7069,2.7037,2.7025,2.7175,2.7176,2.7176,2.7177,0,2.7138,2.712,2.709,2.7094,2.7088,2.7057,2.7088,2.7077,2.7102,2.7118,2.7084,2.7094,2.7085,2.7076,2.7099,2.7034,2.7049,2.7081,2.7128,2.705,2.7021,2.7009,2.7169,2.7171,2.7172,2.7173,0,0,2.6996,2.7022,2.701,2.7013,2.7027,2.7012,2.6984,2.6977,2.6967,2.6967,2.6944,2.6922,2.6952,2.6949,2.6973,2.6948,2.6874,2.6983,2.6984,2.6962,2.6803,2.6778,2.6763,2.6896,2.6893,2.6892,2.6802,0,2.6906,2.6861,2.6893,2.6842,2.6825,2.6874,2.6849,2.6854,2.6869,2.6855,2.6871,2.6855,2.6897,2.6895,2.6873,2.6888,2.6843,2.6895,2.6872,2.6871,2.6868,2.6748,2.6721,2.6636,2.6791,2.6789,2.6788,0,2.6795,2.6793,2.674,2.6758,2.6752,2.6729,2.6726,2.6713,2.672,2.6732,2.6729,2.676,2.6732,2.678,2.6742,2.6777,2.677,2.6776,2.6773,2.6771,2.6823,2.6741,2.661,2.6597,2.6771,2.6772,2.6773,0,2.6695,2.6679,2.6646,2.6646,2.6667,2.6649,2.6657,2.6666,2.666,2.6657,2.6653,2.6646,2.6641,2.6635,2.6662,2.6694,2.6619,2.667,2.6628,2.6627,2.6608,2.6609,2.6473,2.6606,2.6606,2.6606,2.6606,0,2.659,2.6556,2.6601,2.658,2.6543,2.6581,2.6542,2.6555,2.6563,2.6544,2.6586,2.6567,2.6605,2.659,2.6611,2.6576,2.6573,2.6582,2.6587,2.6577,2.6576,2.6572,2.6578,2.6603,2.6604,2.6604,2.6605,0,2.6472,2.6501,2.6468,2.649,2.6495,2.6467,2.6486,2.6466,2.6485,2.6461,2.6458,2.6486,2.647,2.6498,2.6485,2.6499,2.645,2.6465,2.6448,2.6452,2.6408,2.6411,2.6263,2.6245,2.6391,2.6389,2.6388,0,2.6403,2.6378,2.6398,2.639,2.6396,2.6381,2.6376,2.6412,2.6405,2.6411,2.6391,2.6379,2.6372,2.6345,2.6363,2.6354,2.6369,2.6317,2.6367,2.6358,2.6367,2.6367,2.6365,2.6306,2.6305,2.6303,2.6302,0,2.6276,2.6292,2.6284,2.6281,2.6274,2.6273,2.6274,2.6264,2.6303,2.6292,2.6278,2.6273,2.6261,2.6248,2.6244,2.625,2.6281,2.6287,2.6276,2.6265,2.6256,2.6259,2.6419,2.6289,2.6291,2.6292,2.6292,2.6293,2.618,2.616,2.6172,2.6161,2.6167,2.6167,2.6151,2.6168,2.6158,2.6152,2.6174,2.6155,2.6162,2.616,2.6163,2.6147,2.617,2.6155,2.6151,2.6146,2.6139,2.6259,2.6146,2.6147,2.6147,2.6148,2.6148,0,2.6055,2.6065,2.6056,2.6058,2.6049,2.6082,2.6086,2.6076,2.6059,2.6064,2.6057,2.6041,2.6029,2.6047,2.6039,2.6023,2.6037,2.6019,2.602,2.6021,2.612,2.6129,2.6008,2.6008,2.6008,2.6008,2.6008,2.6008,2.5989,2.5957,2.5975,2.5946,2.5956,2.5939,2.5938,2.5939,2.5944,2.5924,2.5915,2.5928,2.5938,2.5931,2.5922,2.5927,2.5922,2.5898,2.5909,2.6,2.6014,2.6027,2.6036,2.5897,2.5897,2.5811,2.581,2.581]}]]